• In United Kingdom
  • List of Countries
  • For 7 days
  • Water Temperature
  • Satellite Maps
  • Weather Map
  • Weather Widgets
  • user-avatar
    Login

    Hourly Weather Heredia

    Today, 22 August, Wednesday

    Time Temperature Precipitation Wind Pressure Humidity
    00:00 +20°C° 0 mm 1 mps 663 mmHg 86%
    01:00 +20°C° 0 mm 1 mps 663 mmHg 86%
    02:00 +20°C° 0 mm 1 mps 663 mmHg 86%
    03:00 +20°C° 0 mm 1 mps 662 mmHg 86%
    04:00 +20°C° 0 mm 1 mps 662 mmHg 85%
    05:00 +20°C° 0 mm 1 mps 663 mmHg 85%
    06:00 +20°C° 0 mm 1 mps 663 mmHg 85%
    07:00 +22°C° 0 mm 1 mps 663 mmHg 76%
    08:00 +24°C° 0 mm 2 mps 664 mmHg 67%
    09:00 +26°C° 0 mm 2 mps 665 mmHg 58%
    10:00 +27°C° 0 mm 2 mps 665 mmHg 55%
    11:00 +28°C° 0 mm 2 mps 665 mmHg 52%
    12:00 +29°C° 0 mm 3 mps 665 mmHg 49%
    13:00 +28°C° 0.2 mm 3 mps 664 mmHg 52%
    14:00 +27°C° 0.2 mm 3 mps 664 mmHg 56%
    15:00 +27°C° 0.2 mm 2 mps 663 mmHg 60%
    16:00 +25°C° 0.4 mm 2 mps 663 mmHg 68%
    17:00 +23°C° 0.4 mm 1 mps 663 mmHg 77%
    18:00 +22°C° 0.4 mm 1 mps 662 mmHg 86%
    19:00 +21°C° 0 mm 1 mps 663 mmHg 86%
    20:00 +21°C° 0 mm 1 mps 663 mmHg 87%
    21:00 +20°C° 0 mm 1 mps 663 mmHg 88%
    22:00 +20°C° 0 mm 1 mps 663 mmHg 86%
    23:00 +20°C° 0 mm 1 mps 663 mmHg 84%

    Tomorrow, 23 August, Thursday

    Time Temperature Precipitation Wind Pressure Humidity
    00:00 +20°C° 0 mm 1 mps 663 mmHg 82%
    01:00 +20°C° 0 mm 1 mps 663 mmHg 81%
    02:00 +20°C° 0 mm 1 mps 662 mmHg 81%
    03:00 +19°C° 0 mm 1 mps 662 mmHg 80%
    04:00 +19°C° 0.1 mm 1 mps 662 mmHg 81%
    05:00 +19°C° 0.1 mm 1 mps 662 mmHg 81%
    06:00 +19°C° 0.1 mm 1 mps 662 mmHg 82%
    07:00 +21°C° 0.4 mm 1 mps 663 mmHg 79%
    08:00 +22°C° 0.4 mm 1 mps 664 mmHg 76%
    09:00 +23°C° 0.4 mm 1 mps 665 mmHg 73%
    10:00 +24°C° 0.5 mm 1 mps 664 mmHg 72%
    11:00 +24°C° 0.5 mm 1 mps 664 mmHg 72%
    12:00 +25°C° 0.5 mm 2 mps 664 mmHg 71%
    13:00 +24°C° 1.1 mm 1 mps 663 mmHg 73%
    14:00 +24°C° 1.1 mm 1 mps 663 mmHg 75%
    15:00 +23°C° 1.1 mm 1 mps 662 mmHg 78%
    16:00 +22°C° 1 mm 1 mps 662 mmHg 82%
    17:00 +21°C° 1 mm 1 mps 662 mmHg 86%
    18:00 +20°C° 1 mm 1 mps 662 mmHg 90%
    19:00 +20°C° 0.5 mm 1 mps 662 mmHg 89%
    20:00 +20°C° 0.5 mm 1 mps 663 mmHg 89%
    21:00 +20°C° 0.5 mm 1 mps 663 mmHg 88%
    22:00 +19°C° 0.6 mm 1 mps 663 mmHg 88%
    23:00 +19°C° 0.6 mm 1 mps 663 mmHg 88%

    Day after tomorrow, 24 August, Friday

    Time Temperature Precipitation Wind Pressure Humidity
    00:00 +19°C° 0.6 mm 1 mps 662 mmHg 88%
    01:00 +19°C° 0.6 mm 1 mps 662 mmHg 88%
    02:00 +19°C° 0.6 mm 1 mps 661 mmHg 88%
    03:00 +19°C° 0.6 mm 1 mps 661 mmHg 87%
    04:00 +19°C° 0.5 mm 1 mps 661 mmHg 87%
    05:00 +19°C° 0.5 mm 1 mps 661 mmHg 87%
    06:00 +19°C° 0.5 mm 1 mps 661 mmHg 87%
    07:00 +20°C° 0.4 mm 1 mps 662 mmHg 83%
    08:00 +22°C° 0.4 mm 1 mps 663 mmHg 79%
    09:00 +23°C° 0.4 mm 1 mps 664 mmHg 74%
    10:00 +24°C° 0.3 mm 1 mps 664 mmHg 72%
    11:00 +25°C° 0.3 mm 1 mps 664 mmHg 69%
    12:00 +26°C° 0.3 mm 1 mps 664 mmHg 66%
    13:00 +25°C° 0.5 mm 1 mps 663 mmHg 69%
    14:00 +25°C° 0.5 mm 1 mps 662 mmHg 72%
    15:00 +24°C° 0.5 mm 1 mps 662 mmHg 75%
    16:00 +23°C° 1.3 mm 1 mps 662 mmHg 81%
    17:00 +22°C° 1.3 mm 1 mps 662 mmHg 86%
    18:00 +19°C° 1.3 mm 0 mps 662 mmHg 92%
    19:00 +18°C° 1 mm 0 mps 662 mmHg 92%
    20:00 +18°C° 1 mm 0 mps 663 mmHg 92%
    21:00 +18°C° 1 mm 0 mps 663 mmHg 92%
    22:00 +18°C° 0.4 mm 0 mps 663 mmHg 92%
    23:00 +18°C° 0.4 mm 0 mps 663 mmHg 92%

    25 August, Saturday

    Time Temperature Precipitation Wind Pressure Humidity
    00:00 +17°C° 0.4 mm 0 mps 663 mmHg 92%
    01:00 +17°C° 0.1 mm 0 mps 662 mmHg 92%
    02:00 +17°C° 0.1 mm 0 mps 662 mmHg 92%
    03:00 +17°C° 0.1 mm 0 mps 662 mmHg 91%
    04:00 +17°C° 0.1 mm 0 mps 662 mmHg 91%
    05:00 +17°C° 0.1 mm 0 mps 662 mmHg 91%
    06:00 +17°C° 0.1 mm 0 mps 662 mmHg 91%
    07:00 +21°C° 0.1 mm 1 mps 663 mmHg 84%
    08:00 +22°C° 0.1 mm 1 mps 664 mmHg 78%
    09:00 +24°C° 0.1 mm 1 mps 664 mmHg 72%
    10:00 +24°C° 0.2 mm 1 mps 664 mmHg 71%
    11:00 +25°C° 0.2 mm 1 mps 664 mmHg 69%
    12:00 +25°C° 0.2 mm 2 mps 664 mmHg 68%
    13:00 +25°C° 1.4 mm 2 mps 663 mmHg 73%
    14:00 +24°C° 1.4 mm 2 mps 662 mmHg 78%
    15:00 +23°C° 1.4 mm 1 mps 662 mmHg 83%
    16:00 +22°C° 2.6 mm 1 mps 662 mmHg 86%
    17:00 +21°C° 2.6 mm 1 mps 662 mmHg 89%
    18:00 +21°C° 2.6 mm 1 mps 662 mmHg 92%
    19:00 +20°C° 3.5 mm 1 mps 663 mmHg 92%
    20:00 +20°C° 3.5 mm 1 mps 663 mmHg 92%
    21:00 +18°C° 3.5 mm 0 mps 664 mmHg 92%
    22:00 +18°C° 1.1 mm 0 mps 663 mmHg 92%
    23:00 +18°C° 1.1 mm 0 mps 663 mmHg 92%

    26 August, Sunday

    Time Temperature Precipitation Wind Pressure Humidity
    00:00 +17°C° 1.1 mm 0 mps 663 mmHg 92%
    01:00 +17°C° 0.4 mm 0 mps 662 mmHg 92%
    02:00 +17°C° 0.4 mm 0 mps 662 mmHg 92%
    03:00 +19°C° 0.4 mm 1 mps 662 mmHg 91%
    04:00 +19°C° 0.2 mm 1 mps 662 mmHg 91%
    05:00 +19°C° 0.2 mm 1 mps 662 mmHg 90%
    06:00 +19°C° 0.2 mm 1 mps 662 mmHg 89%
    07:00 +20°C° 0.2 mm 1 mps 663 mmHg 85%
    08:00 +21°C° 0.2 mm 1 mps 664 mmHg 81%
    09:00 +23°C° 0.2 mm 1 mps 664 mmHg 77%
    10:00 +23°C° 0.2 mm 1 mps 664 mmHg 75%
    11:00 +24°C° 0.2 mm 1 mps 664 mmHg 72%
    12:00 +25°C° 0.2 mm 1 mps 664 mmHg 69%
    13:00 +24°C° 1 mm 1 mps 663 mmHg 73%
    14:00 +24°C° 1 mm 1 mps 663 mmHg 78%
    15:00 +23°C° 1 mm 1 mps 662 mmHg 82%
    16:00 +22°C° 1.6 mm 1 mps 662 mmHg 86%
    17:00 +21°C° 1.6 mm 1 mps 662 mmHg 90%
    18:00 +18°C° 1.6 mm 0 mps 662 mmHg 93%
    19:00 +18°C° 1.5 mm 0 mps 663 mmHg 93%
    20:00 +18°C° 1.5 mm 0 mps 663 mmHg 93%
    21:00 +18°C° 1.5 mm 0 mps 663 mmHg 93%
    22:00 +18°C° 0.7 mm 0 mps 663 mmHg 93%
    23:00 +18°C° 0.7 mm 0 mps 663 mmHg 93%

    27 August, Monday

    Time Temperature Precipitation Wind Pressure Humidity
    00:00 +17°C° 0.7 mm 0 mps 662 mmHg 93%
    01:00 +17°C° 0.6 mm 0 mps 662 mmHg 92%
    02:00 +17°C° 0.6 mm 0 mps 662 mmHg 92%
    03:00 +17°C° 0.6 mm 0 mps 661 mmHg 92%
    04:00 +17°C° 0.5 mm 0 mps 662 mmHg 91%
    05:00 +17°C° 0.5 mm 0 mps 662 mmHg 90%
    06:00 +17°C° 0.5 mm 0 mps 662 mmHg 89%
    07:00 +18°C° 0.4 mm 0 mps 663 mmHg 85%
    08:00 +20°C° 0.4 mm 0 mps 664 mmHg 80%
    09:00 +21°C° 0.4 mm 0 mps 664 mmHg 75%
    10:00 +24°C° 0.5 mm 1 mps 664 mmHg 72%
    11:00 +25°C° 0.5 mm 1 mps 664 mmHg 70%
    12:00 +25°C° 0.5 mm 1 mps 664 mmHg 67%
    13:00 +25°C° 0.5 mm 1 mps 663 mmHg 70%
    14:00 +24°C° 0.5 mm 1 mps 662 mmHg 73%
    15:00 +24°C° 0.5 mm 1 mps 662 mmHg 76%
    16:00 +23°C° 0.6 mm 1 mps 662 mmHg 81%
    17:00 +22°C° 0.6 mm 1 mps 662 mmHg 86%
    18:00 +19°C° 0.6 mm 0 mps 662 mmHg 90%
    19:00 +18°C° 0.8 mm 0 mps 663 mmHg 91%
    20:00 +18°C° 0.8 mm 0 mps 663 mmHg 91%
    21:00 +18°C° 0.8 mm 0 mps 663 mmHg 91%
    22:00 +18°C° 0.6 mm 0 mps 663 mmHg 91%
    23:00 +18°C° 0.5 mm 0 mps 663 mmHg 90%
    Show more